Home > Time Zones > World Clock > Weather > Yemen > Aden > Past weeks

Flag for Yemen Weather past 2 weeks in Aden, Yemen

Now
88 °F

Duststorm.


Feels Like: 100 °F
Forecast: 85 / 95 °F
Wind: 3 mph from Southeast

Location: Aden

Current Time: Jul 24, 2014 at 5:57:19 AM

Latest Report: Jul 24, 2014 at 5:00 AM


Visibility: 3 mi

Pressure: 29.56 "Hg

Humidity: 70%

Dew point: 77 °F

Location of AdenLocation

Historic Weather in Aden — Graph

°F

Aden temperature yesterday

Maximum temperature yesterday: 97 °F (at 3:00 PM)
Minimum temperature yesterday: 86 °F (at 6:00 AM)
Average temperature yesterday: 91 °F

Past Weeks' High & Low Weather Summary

 TemperatureHumidityPressure
High99 °F (Jul 11, 4:00 PM)75% (Jul 17, 4:00 AM)29.77 "Hg (Jul 17, 4:00 AM)
Low84 °F (Jul 13, 5:00 AM)25% (Jul 11, 5:00 PM)29.47 "Hg (Jul 18, 5:00 PM)
Average91 °F54%29.60 "Hg
* Reported Jul 9 5:00 AM — Jul 24 5:00 AM, Aden, Weather by CustomWeather, © 2014

Note: Actual official high and low records may vary slightly from our data, if they occured in-between our weather recording intervals... More about our weather records

Advertising

Aden weather history for previous 24 hours

 ConditionsComfort  
Time TempWeatherWind HumidityBarometerVisibility
5:00 AM
Jul 24
88 °FDuststorm.3 mph70%29.56 "Hg3 mi
4:00 AM88 °FDuststorm.7 mph62%29.56 "Hg3 mi
3:00 AM90 °FDuststorm.8 mph63%29.56 "Hg3 mi
2:00 AM90 °FDuststorm.7 mph59%29.56 "Hg3 mi
1:00 AM90 °FClear.No wind63%29.59 "Hg4 mi
12:00 AM90 °FClear.8 mph67%29.59 "Hg4 mi
11:00 PM
Jul 23
91 °FClear.7 mph52%29.56 "Hg4 mi
10:00 PM91 °FClear.6 mph52%29.56 "Hg4 mi
9:00 PM91 °FClear.No wind56%29.56 "Hg4 mi
8:00 PM90 °FClear.6 mph63%29.56 "Hg4 mi
7:00 PM91 °FClear.9 mph52%29.56 "Hg4 mi
6:00 PM95 °FClear.7 mph50%29.53 "Hg4 mi
5:00 PM97 °FClear.8 mph44%29.50 "Hg4 mi
4:00 PM97 °FClear.6 mph44%29.50 "Hg4 mi
3:00 PM97 °FClear.6 mph44%29.53 "Hg4 mi
2:00 PM95 °FClear.14 mph47%29.56 "Hg4 mi
1:00 PM95 °FClear.10 mph53%29.59 "Hg4 mi
12:00 PM95 °FClear.5 mph53%29.62 "Hg4 mi
11:00 AM95 °FClear.3 mph50%29.65 "Hg4 mi
9:00 AM88 °FClear.9 mph70%29.65 "Hg4 mi
8:00 AM88 °FPartly sunny.8 mph62%29.65 "Hg4 mi
7:00 AM86 °FPartly sunny.10 mph75%29.62 "Hg4 mi
6:00 AM86 °FClear.7 mph70%29.59 "Hg4 mi
5:00 AM88 °FClear.9 mph62%29.59 "Hg4 mi
Weather by CustomWeather, © 2014

See weather overviewHow to use our weather pages